Astoria, OR

6:28 PM PST on December 08, 2016 (GMT -0800)
Astoria Regional

Weather History for KAST - March, 2014

Change the Weather History Date:

Monday, March 24, 2014

  Actual Average Record
Temperature  
Mean Temperature 54 °F 47 °F  
Max Temperature 67 °F 54 °F 70 °F (1934)
Min Temperature 40 °F 40 °F 27 °F (1964)
Degree Days  
Heating Degree Days 11 18  
Month to date heating degree days 408 454  
Since 1 July heating degree days 3837 3796  
Cooling Degree Days 0 0  
Month to date cooling degree days 0 0  
Year to date cooling degree days 0 0  
Growing Degree Days 2 (Base 50)    
Moisture  
Dew Point 36 °F    
Average Humidity 56    
Maximum Humidity 85    
Minimum Humidity 27    
Precipitation  
Precipitation 0.00 in 0.23 in 1.79 in (2007)
Month to date precipitation 7.99 5.90  
Year to date precipitation 21.75 23.29  
Sea Level Pressure  
Sea Level Pressure 30.00 in    
Wind  
Wind Speed 10 mph (East)    
Max Wind Speed 29 mph    
Max Gust Speed 41 mph    
Visibility 9 miles    
Events Fog , Rain    
T = Trace of Precipitation, MM = Missing Value Source: NWS Daily Summary

Daily Weather History Graph

Daily Weather History Graph

Search for Another Location

Airport or City:

Trip Planner

Search our weather history database for the weather conditions in past years. The results will help you decide how hot, cold, wet, or windy it might be!

Date:

Astronomy

Mar. 24, 2014 Rise Set
Actual Time 7:10 AM PDT 7:33 PM PDT
Civil Twilight 6:40 AM PDT 8:03 PM PDT
Nautical Twilight 6:05 AM PDT 8:39 PM PDT
Astronomical Twilight 5:28 AM PDT 9:15 PM PDT
Moon 3:04 AM PDT (3/24) 12:47 PM PDT (3/24)
Length of Visible Light 13h 23m
Length of Day
12h 23m
Last Quarter, 42% of the Moon is Illuminated
Mar 24
Last Quarter
Mar 30
New
Apr 7
First Quarter
Apr 15
Full
Apr 22
Last Quarter

Hourly Weather History & Observations

Time (PDT) Temp. Windchill Dew Point Humidity Pressure Visibility Wind Dir Wind Speed Gust Speed Precip Events Conditions
12:55 AM 44.1 °F 41.5 °F 39.0 °F 82% 30.17 in 10.0 mi East 4.6 mph - N/A   Clear
1:55 AM 44.1 °F 41.5 °F 39.0 °F 82% 30.15 in 10.0 mi East 4.6 mph - N/A   Clear
2:55 AM 42.1 °F 39.2 °F 37.9 °F 85% 30.13 in 10.0 mi East 4.6 mph - N/A   Clear
3:55 AM 39.9 °F 35.8 °F 36.0 °F 86% 30.10 in 10.0 mi East 5.8 mph - N/A   Clear
4:55 AM 42.1 °F 36.6 °F 37.0 °F 82% 30.08 in 10.0 mi ENE 9.2 mph - N/A   Clear
5:55 AM 44.1 °F 39.0 °F 37.9 °F 79% 30.06 in 10.0 mi ENE 9.2 mph - N/A   Clear
6:55 AM 41.0 °F 37.1 °F 36.0 °F 82% 30.05 in 10.0 mi East 5.8 mph - N/A   Clear
7:55 AM 43.0 °F 37.7 °F 37.0 °F 80% 30.03 in 10.0 mi East 9.2 mph - N/A   Clear
8:55 AM 48.0 °F - 39.0 °F 71% 30.03 in 10.0 mi East 9.2 mph - N/A   Clear
9:18 AM - - - N/A% 30.02 in 9.0 mi North 3.5 mph - N/A   Partly Cloudy
9:55 AM - - - N/A% 30.03 in 0.5 mi North 3.5 mph - N/A Fog Fog
9:59 AM - - - N/A% 30.02 in 2.0 mi Calm Calm - N/A   Clear
10:06 AM - - - N/A% 30.02 in 10.0 mi Calm Calm - N/A   Clear
10:55 AM 57.9 °F - 39.0 °F 49% 30.01 in 10.0 mi North - - N/A   Clear
11:55 AM 63.0 °F - 37.0 °F 38% 29.99 in 10.0 mi North - - N/A   Clear
12:55 PM 64.0 °F - 42.1 °F 45% 30.00 in 10.0 mi NNW 8.1 mph - N/A   Clear
1:55 PM 64.0 °F - 39.0 °F 40% 29.99 in 10.0 mi West 10.4 mph - N/A   Clear
2:55 PM 57.9 °F - 43.0 °F 58% 29.99 in 10.0 mi SW 20.7 mph 34.5 mph N/A   Clear
3:55 PM 59.0 °F - 34.0 °F 39% 29.97 in 10.0 mi SW 23.0 mph 32.2 mph N/A   Clear
4:55 PM 62.1 °F - 28.9 °F 29% 29.95 in 10.0 mi SW 15.0 mph 23.0 mph N/A   Clear
5:55 PM 61.0 °F - 27.0 °F 27% 29.91 in 10.0 mi SSW 8.1 mph 18.4 mph N/A   Mostly Cloudy
6:55 PM 55.0 °F - 37.9 °F 53% 29.95 in 10.0 mi SW 15.0 mph - N/A   Clear
7:55 PM 55.0 °F - 34.0 °F 45% 29.93 in 10.0 mi SW 15.0 mph 24.2 mph N/A   Overcast
8:55 PM 55.9 °F - 30.0 °F 37% 29.93 in 10.0 mi SSE 8.1 mph - N/A   Mostly Cloudy
9:55 PM 52.0 °F - 34.0 °F 50% 29.91 in 10.0 mi WSW 5.8 mph - N/A   Mostly Cloudy
10:55 PM 52.0 °F - 37.0 °F 57% 29.88 in 10.0 mi NE 4.6 mph - N/A   Overcast
11:55 PM 54.0 °F - 35.1 °F 49% 29.84 in 10.0 mi Calm Calm - 0.00 in Rain Light Rain